Location: Unspecified
(0.0000°N, 0.0000°E)
Time: 08:22:05
(UTC+00:00)

SJ-6F - Pass Details

Date: 12 August 2021
Orbit: 570 x 593 km, 97.8° (Epoch: 27 September)

Event Time Altitude Azimuth Distance (km) Brightness Sun altitude
Rises 04:54:14 0° 344° (NNW) 2,761 7.9 -17.1°
Reaches altitude 10° 04:56:56 10° 324° (NW) 1,865 6.8 -16.4°
Enters shadow 04:58:12 15° 308° (NW) 1,573 6.3 -16.1°
